sat.trackr.live / text

‹ back to catalog

STARLINK-11323 [DTC]

NORAD 61533 · 2024-184B

PAYLOAD ACTIVE UNKNOWN

§ Identity

Operator
Country
US
Launch date
2024-10-15
Launch site
AFWTR
Launch vehicle
Mass (kg)
RCS (m²)

Purposes: comms

External: N2YO · Heavens-Above · Gunter

§ Orbital elements

Epoch: 2026-09-21T12:15:32.097024Z

Period
91.74 min
Inclination
53.1590°
Eccentricity
0.0000946
Mean motion
15.69702501 rev/d
Perigee alt
359.1 km
Apogee alt
360.4 km
Semi-major
6,737.9 km
B*
8.7456e-6
RAAN
350.9091°
Arg perigee
55.6915°
Mean anomaly
304.4192°
Rev number
11,117

§ Raw data

STARLINK-11323 [DTC]1 61533U 24184B   26264.51078816  .00000471  00000+0  87456-5 0  99992 61533  53.1590 350.9091 0000946  55.6915 304.4192 15.69702501111170

JSON: /api/v1/satellites/61533 · /tle

For live sub-satellite position, see the globe view (requires WebGL).

§ Visibility from observer

Set your observer location to see the next 7 days of passes ≥ 10°. The values pass through the URL so the page stays shareable.

No JS? Fill the form by hand. The geolocation button needs JavaScript.